Location: Fort Frances
(48.6170°N, 93.4170°W)
Time: 19:17:09
(UTC-05:00)

Daily predictions for brighter satellites

Satellite Brightness Start Highest point End
(mag) Time Altitude Azimuth Time Altitude Azimuth Time Altitude Azimuth
SL-08 RB Rocket 4.0 21:57:00 10° SSE 22:01:27 56° ENE 22:05:59 10° N
Cosmos 1570 Rocket 4.2 21:56:56 10° NNW 22:02:16 75° WSW 22:07:31 10° SSE
SPOT 1/Viking Rocket 4.0 21:57:29 10° SE 22:02:25 51° ENE 22:07:25 10° N
YAOGAN 11 4.3 21:59:19 10° SSE 22:03:47 68° ENE 22:08:20 10° N
Cosmos 1140 Rocket 3.8 21:58:55 10° SSW 22:04:05 74° WNW 22:09:15 10° NNE
Cosmos 1766 Rocket 4.1 22:00:17 10° SSE 22:04:19 40° E 22:08:25 10° NNE
USA 32 4.4 21:59:34 10° SSW 22:04:47 72° W 22:10:04 10° N
Cosmos 2082 4.3 22:00:40 10° SW 22:06:15 64° WNW 22:11:53 10° NNE
Meteor 1-21 Rocket 4.3 22:01:39 10° S 22:07:13 61° E 22:12:44 10° NNE
USA 245 3.3 22:04:07 10° SSE 22:07:28 69° ENE 22:11:44 10° N
Cosmos 1328 Rocket 4.4 22:04:35 10° N 22:08:38 36° ENE 22:12:37 10° SE
EO 1 Delta rocket 4.3 22:04:41 10° SSE 22:09:11 47° ENE 22:13:40 10° N
Cosmos 1763 Rocket 4.4 22:04:46 10° N 22:09:33 37° ENE 22:14:15 10° SE
Cosmos 2228 Rocket 4.0 22:05:48 10° N 22:10:03 36° ENE 22:14:17 10° SE
Cosmos 2297 Rocket 2.9 22:07:16 10° SW 22:12:51 61° WNW 22:18:28 10° NNE
Cosmos 1867 3.7 22:14:04 10° SSW 22:19:21 54° ESE 22:24:41 10° NE
Cosmos 1151 Rocket 4.3 22:17:18 10° N 22:21:09 29° ENE 22:24:51 11° SE
H-2A R/B 3.4 22:17:35 10° ESE 22:21:15 27° ENE 22:24:51 10° N
Cosmos 1300 3.2 22:17:47 10° N 22:21:30 45° ENE 22:25:01 11° SSE
Cosmos 1459 Rocket 4.2 22:15:30 10° NNW 22:21:51 78° W 22:28:04 10° S
Cosmos 2100 Rocket 4.3 22:15:41 10° NNW 22:21:58 73° W 22:28:17 10° S
Cosmos 1340 Rocket 4.1 22:18:21 10° SSW 22:22:13 44° WNW 22:26:09 10° N
Cosmos 2061 Rocket 4.2 22:16:36 10° N 22:22:59 84° W 22:29:25 10° S
Cosmos 2263 Rocket 3.7 22:21:44 10° SE 22:25:18 18° E 22:28:52 10° ENE
Cosmos 1626 4.2 22:25:49 10° ESE 22:27:47 14° E 22:29:43 10° NE
Cosmos 1726 2.1 22:26:14 10° N 22:29:57 74° E 22:33:26 11° SSE
Meteor 2-10 4.4 22:26:46 10° N 22:32:18 64° ENE 22:37:39 11° SSE
ATLAS 5 CENTAUR R/B 1.8 22:28:18 10° SW 22:33:02 86° SE 22:38:17 10° NE
Lacrosse 5 1.9 22:28:29 10° WNW 22:33:34 75° SW 22:38:08 13° SE
SPOT 5 3.2 22:29:00 10° S 22:33:48 68° WSW 22:38:55 10° NNW
Cosmos 2084 3.1 22:30:16 10° SSW 22:34:12 69° SE 22:38:00 10° NE
Cosmos 2173 Rocket 4.4 22:29:00 10° NNW 22:35:04 64° W 22:41:11 10° S
Cosmos 1850 Rocket 4.4 22:30:54 10° SSW 22:36:03 68° WNW 22:41:16 10° NNE
Cosmos 468 Rocket 4.0 22:31:46 10° NNW 22:36:56 82° WSW 22:41:43 12° SSE
IGS 5A 4.1 22:33:58 13° SE 22:37:29 44° ENE 22:41:27 10° N
Cosmos 2123 Rocket 4.1 22:31:31 10° S 22:37:34 61° E 22:43:41 10° NNE
Cosmos 371 Rocket 3.3 22:35:22 10° NNW 22:40:13 75° ENE 22:44:22 14° SSE
Nimbus 7 Rocket 4.5 22:36:22 10° NNE 22:42:26 71° ESE 22:48:23 10° S
USA 234 3.3 22:36:49 10° ENE 22:43:18 60° SE 22:49:45 10° SW
Cosmos 1603 3.8 22:38:35 10° NNW 22:44:15 74° WSW 22:49:18 13° SSE
Abrixas rocket 2.2 22:41:45 10° W 22:44:58 59° SSW 22:47:34 15° ESE
H-2A R/B 2.3 22:41:29 10° S 22:46:48 75° WSW 22:52:16 10° NNW
PSLV R/B 4.4 22:49:41 16° ESE 22:51:19 27° ENE 22:53:49 10° N
Lacrosse 4 Rocket 4.4 22:50:43 10° W 22:54:05 22° NW 22:57:32 10° NNE
Cosmos 1674 4.2 22:50:37 10° SW 22:54:07 36° WNW 22:57:37 10° N
Cosmos 1455 3.6 22:52:02 10° NNE 22:55:24 27° ENE 22:57:48 15° ESE
Cosmos 1725 Rocket 4.1 22:50:22 10° N 22:56:41 83° W 23:02:34 12° S
Cosmos 2227 Rocket 4.5 22:51:57 10° WSW 22:56:45 28° NW 23:01:34 10° NNE
SL-16 R/B 4.1 22:56:33 10° NW 23:00:46 22° W 23:04:58 10° SSW
Cosmos 1943 3.2 22:55:50 10° NNW 23:01:32 82° ENE 23:05:59 17° SSE
Cosmos 220 Rocket 4.2 22:57:31 10° S 23:01:47 56° ESE 23:06:05 10° NNE
Landsat 7 4.0 22:59:49 13° S 23:03:59 70° WSW 23:08:46 10° NNW
deb Chang Zheng 4 4.2 23:00:11 10° NNE 23:04:17 38° E 23:07:04 18° SSE
Cosmos 1408 Rocket 4.4 23:02:23 10° SSW 23:06:33 49° WNW 23:10:47 10° N
Tiangong 1 1.9 23:05:28 10° WSW 23:07:48 24° S 23:07:55 24° S
ARGOS 4.5 23:03:00 10° SSW 23:07:56 35° W 23:12:53 10° NNW
CZ-4B R/B 4.3 23:05:00 10° NNE 23:09:53 36° E 23:13:09 18° SSE
CZ-4 R/B 4.4 23:06:34 10° NNE 23:11:14 43° E 23:14:23 19° SSE
Cosmos 540 Rocket 4.0 23:09:53 10° NNW 23:14:55 49° ENE 23:18:37 18° SE
DMSP B5D2-2 4.1 23:10:23 10° NNE 23:15:40 89° WNW 23:20:53 10° SSW
Cosmos 2058 3.0 23:15:04 19° S 23:17:55 60° E 23:22:06 10° NNE
Cosmos 1703 3.6 23:16:13 21° SSE 23:18:33 49° E 23:22:26 10° NNE
Terra 2.0 23:15:15 17° S 23:18:56 71° WSW 23:23:42 10° NNW
Cosmos 1356 3.5 23:18:00 22° S 23:20:05 64° E 23:23:35 10° NNE
Cosmos 1464 Rocket 4.5 23:15:40 10° N 23:21:36 47° ENE 23:25:54 19° SE
Cosmos 1500 Rocket 3.6 23:22:19 14° SSW 23:26:07 83° W 23:30:36 10° N
ERBS 3.0 23:23:25 10° WNW 23:26:38 40° SW 23:27:57 27° S
Meteor 1-11 4.3 23:22:53 13° S 23:28:08 85° E 23:33:59 10° NNE
Cosmos 1354 Rocket 4.4 23:26:34 20° SSE 23:29:47 44° ESE 23:34:44 10° NE
RESURS DK-1 4.1 23:29:11 10° NW 23:32:36 24° WSW 23:35:16 14° SSW
Cosmos 2151 3.0 23:30:36 17° SSW 23:33:52 81° W 23:38:13 10° N
CZ-3A R/B 1.8 23:33:31 10° NW 23:33:52 17° NW 23:33:52 17° NW
CZ-2C R/B 4.0 23:30:40 10° NE 23:34:48 22° E 23:37:05 17° SE
CARTOSAT-1 4.3 23:32:40 17° SSW 23:35:45 45° W 23:39:55 10° NNW
SME Rocket 3.1 23:34:18 25° SSE 23:36:30 70° ENE 23:41:16 10° NNW
SS 1 4.4 23:35:01 10° NW 23:37:53 81° SW 23:39:00 35° SSE
BREEZE-M DEB (TANK) 2.9 23:36:08 10° W 23:38:57 82° N 23:48:43 10° E
Spot 4 3.9 23:39:25 23° S 23:42:31 79° WSW 23:47:26 10° NNW
Cosmos 1486 Rocket 4.1 23:37:25 10° SSW 23:42:42 82° WNW 23:48:03 10° NNE
SL-24 R/B 4.5 23:41:34 26° S 23:43:52 84° WSW 23:48:05 10° NNW
Cosmos 1805 Rocket 3.8 23:42:50 26° SSE 23:44:58 50° E 23:49:11 10° NNE
Cosmos 304 Rocket 3.7 23:41:24 10° NNW 23:46:14 83° WSW 23:48:57 26° SSE
Cosmos 841 Rocket 4.1 23:42:58 10° NNW 23:48:00 47° WSW 23:51:18 20° S
Cosmos 1633 Rocket 4.0 23:49:53 24° SE 23:51:37 34° E 23:55:32 10° NNE
